Year,Month,Day,Hour,Minute,Value (Times are PST for temperature in C)
2012,05,25,00,00,7.00
2012,05,25,00,01,7.00
2012,05,25,00,02,7.00
2012,05,25,00,03,7.00
2012,05,25,00,04,7.00
2012,05,25,00,05,7.00
2012,05,25,00,06,7.00
2012,05,25,00,07,7.00
2012,05,25,00,08,7.00
2012,05,25,00,09,7.00
2012,05,25,00,10,6.90
2012,05,25,00,11,6.90
2012,05,25,00,12,6.90
2012,05,25,00,13,6.90
2012,05,25,00,14,6.90
2012,05,25,00,15,6.90
2012,05,25,00,16,6.80
2012,05,25,00,17,6.80
2012,05,25,00,18,6.80
2012,05,25,00,19,6.80
2012,05,25,00,20,6.80
2012,05,25,00,21,6.80
2012,05,25,00,22,6.80
2012,05,25,00,23,6.80
2012,05,25,00,24,6.80
2012,05,25,00,25,6.80
2012,05,25,00,26,6.80
2012,05,25,00,27,6.80
2012,05,25,00,28,6.80
2012,05,25,00,29,6.80
2012,05,25,00,30,6.70
2012,05,25,00,31,6.70
2012,05,25,00,32,6.70
2012,05,25,00,33,6.70
2012,05,25,00,34,6.70
2012,05,25,00,35,6.70
2012,05,25,00,36,6.60
2012,05,25,00,37,6.60
2012,05,25,00,38,6.60
2012,05,25,00,39,6.60
2012,05,25,00,40,6.60
2012,05,25,00,41,6.60
2012,05,25,00,42,6.60
2012,05,25,00,43,6.60
2012,05,25,00,44,6.60
2012,05,25,00,45,6.60
2012,05,25,00,46,6.60
2012,05,25,00,47,6.60
2012,05,25,00,48,6.60
2012,05,25,00,49,6.50
2012,05,25,00,50,6.40
2012,05,25,00,51,6.40
2012,05,25,00,52,6.40
2012,05,25,00,53,6.40
2012,05,25,00,54,6.40
2012,05,25,00,55,6.40
2012,05,25,00,56,6.40
2012,05,25,00,57,6.40
2012,05,25,00,58,6.40
2012,05,25,00,59,6.40
2012,05,25,01,00,6.40
2012,05,25,01,01,6.40
2012,05,25,01,02,6.40
2012,05,25,01,03,6.40
2012,05,25,01,04,6.40
2012,05,25,01,05,6.40
2012,05,25,01,06,6.40
2012,05,25,01,07,6.40
2012,05,25,01,08,6.40
2012,05,25,01,09,6.40
2012,05,25,01,10,6.40
2012,05,25,01,11,6.40
2012,05,25,01,12,6.40
2012,05,25,01,13,6.40
2012,05,25,01,14,6.40
2012,05,25,01,15,6.40
2012,05,25,01,16,6.40
2012,05,25,01,17,6.40
2012,05,25,01,18,6.40
2012,05,25,01,19,6.30
2012,05,25,01,20,6.30
2012,05,25,01,21,6.30
2012,05,25,01,22,6.30
2012,05,25,01,23,6.20
2012,05,25,01,24,6.20
2012,05,25,01,25,6.20
2012,05,25,01,26,6.20
2012,05,25,01,27,6.20
2012,05,25,01,28,6.20
2012,05,25,01,29,6.20
2012,05,25,01,30,6.20
2012,05,25,01,31,6.10
2012,05,25,01,32,6.10
2012,05,25,01,33,6.10
2012,05,25,01,34,6.10
2012,05,25,01,35,6.10
2012,05,25,01,36,6.00
2012,05,25,01,37,6.00
2012,05,25,01,38,6.00
2012,05,25,01,39,6.00
2012,05,25,01,40,6.00
2012,05,25,01,41,6.00
2012,05,25,01,42,6.00
2012,05,25,01,43,6.00
2012,05,25,01,44,6.00
2012,05,25,01,45,6.00
2012,05,25,01,46,6.00
2012,05,25,01,47,6.00
2012,05,25,01,48,6.00
2012,05,25,01,49,6.00
2012,05,25,01,50,6.00
2012,05,25,01,51,6.00
2012,05,25,01,52,6.00
2012,05,25,01,53,6.00
2012,05,25,01,54,5.90
2012,05,25,01,55,5.90
2012,05,25,01,56,5.90
2012,05,25,01,57,5.90
2012,05,25,01,58,5.90
2012,05,25,01,59,5.90
2012,05,25,02,00,5.90
2012,05,25,02,01,5.80
2012,05,25,02,02,5.80
2012,05,25,02,03,5.80
2012,05,25,02,04,5.80
2012,05,25,02,05,5.80
2012,05,25,02,06,5.80
2012,05,25,02,07,5.80
2012,05,25,02,08,5.80
2012,05,25,02,09,5.70
2012,05,25,02,10,5.70
2012,05,25,02,11,5.70
2012,05,25,02,12,5.70
2012,05,25,02,13,5.70
2012,05,25,02,14,5.70
2012,05,25,02,15,5.70
2012,05,25,02,16,5.70
2012,05,25,02,17,5.70
2012,05,25,02,18,5.70
2012,05,25,02,19,5.70
2012,05,25,02,20,5.70
2012,05,25,02,21,5.60
2012,05,25,02,22,5.60
2012,05,25,02,23,5.60
2012,05,25,02,24,5.60
2012,05,25,02,25,5.60
2012,05,25,02,26,5.60
2012,05,25,02,27,5.60
2012,05,25,02,28,5.60
2012,05,25,02,29,5.60
2012,05,25,02,30,5.60
2012,05,25,02,31,5.60
2012,05,25,02,32,5.60
2012,05,25,02,33,5.60
2012,05,25,02,34,5.60
2012,05,25,02,35,5.60
2012,05,25,02,36,5.60
2012,05,25,02,37,5.60
2012,05,25,02,38,5.60
2012,05,25,02,39,5.60
2012,05,25,02,40,5.60
2012,05,25,02,41,5.60
2012,05,25,02,42,5.60
2012,05,25,02,43,5.50
2012,05,25,02,44,5.50
2012,05,25,02,45,5.50
2012,05,25,02,46,5.50
2012,05,25,02,47,5.50
2012,05,25,02,48,5.50
2012,05,25,02,49,5.50
2012,05,25,02,50,5.50
2012,05,25,02,51,5.50
2012,05,25,02,52,5.50
2012,05,25,02,53,5.50
2012,05,25,02,54,5.50
2012,05,25,02,55,5.50
2012,05,25,02,56,5.50
2012,05,25,02,57,5.50
2012,05,25,02,58,5.50
2012,05,25,02,59,5.50
2012,05,25,03,00,5.50
2012,05,25,03,01,5.50
2012,05,25,03,02,5.50
2012,05,25,03,03,5.50
2012,05,25,03,04,5.50
2012,05,25,03,05,5.50
2012,05,25,03,06,5.50
2012,05,25,03,07,5.50
2012,05,25,03,08,5.50
2012,05,25,03,09,5.50
2012,05,25,03,10,5.50
2012,05,25,03,11,5.50
2012,05,25,03,12,5.50
2012,05,25,03,13,5.50
2012,05,25,03,14,5.50
2012,05,25,03,15,5.50
2012,05,25,03,16,5.50
2012,05,25,03,17,5.50
2012,05,25,03,18,5.50
2012,05,25,03,19,5.50
2012,05,25,03,20,5.50
2012,05,25,03,21,5.50
2012,05,25,03,22,5.50
2012,05,25,03,23,5.50
2012,05,25,03,24,5.50
2012,05,25,03,25,5.50
2012,05,25,03,26,5.50
2012,05,25,03,27,5.60
2012,05,25,03,28,5.60
2012,05,25,03,29,5.60
2012,05,25,03,30,5.60
2012,05,25,03,31,5.60
2012,05,25,03,32,5.60
2012,05,25,03,33,5.60
2012,05,25,03,34,5.70
2012,05,25,03,35,5.70
2012,05,25,03,36,5.60
2012,05,25,03,37,5.60
2012,05,25,03,38,5.60
2012,05,25,03,39,5.60
2012,05,25,03,40,5.60
2012,05,25,03,41,5.60
2012,05,25,03,42,5.60
2012,05,25,03,43,5.50
2012,05,25,03,44,5.50
2012,05,25,03,45,5.50
2012,05,25,03,46,5.50
2012,05,25,03,47,5.50
2012,05,25,03,48,5.50
2012,05,25,03,49,5.50
2012,05,25,03,50,5.50
2012,05,25,03,51,5.50
2012,05,25,03,52,5.50
2012,05,25,03,53,5.50
2012,05,25,03,54,5.50
2012,05,25,03,55,5.50
2012,05,25,03,56,5.50
2012,05,25,03,57,5.50
2012,05,25,03,58,5.50
2012,05,25,03,59,5.50
2012,05,25,04,00,5.50
2012,05,25,04,01,5.50
2012,05,25,04,02,5.40
2012,05,25,04,03,5.40
2012,05,25,04,04,5.40
2012,05,25,04,05,5.40
2012,05,25,04,06,5.40
2012,05,25,04,07,5.40
2012,05,25,04,08,5.40
2012,05,25,04,09,5.40
2012,05,25,04,10,5.40
2012,05,25,04,11,5.40
2012,05,25,04,12,5.40
2012,05,25,04,13,5.40
2012,05,25,04,14,5.40
2012,05,25,04,15,5.40
2012,05,25,04,16,5.40
2012,05,25,04,17,5.40
2012,05,25,04,18,5.40
2012,05,25,04,19,5.40
2012,05,25,04,20,5.40
2012,05,25,04,21,5.30
2012,05,25,04,22,5.30
2012,05,25,04,23,5.30
2012,05,25,04,24,5.30
2012,05,25,04,25,5.30
2012,05,25,04,26,5.30
2012,05,25,04,27,5.30
2012,05,25,04,28,5.30
2012,05,25,04,29,5.30
2012,05,25,04,30,5.30
2012,05,25,04,31,5.30
2012,05,25,04,32,5.30
2012,05,25,04,33,5.30
2012,05,25,04,34,5.30
2012,05,25,04,35,5.30
2012,05,25,04,36,5.30
2012,05,25,04,37,5.30
2012,05,25,04,38,5.30
2012,05,25,04,39,5.30
2012,05,25,04,40,5.30
2012,05,25,04,41,5.30
2012,05,25,04,42,5.30
2012,05,25,04,43,5.30
2012,05,25,04,44,5.30
2012,05,25,04,45,5.30
2012,05,25,04,46,5.30
2012,05,25,04,47,5.30
2012,05,25,04,48,5.30
2012,05,25,04,49,5.30
2012,05,25,04,50,5.30
2012,05,25,04,51,5.30
2012,05,25,04,52,5.30
2012,05,25,04,53,5.30
2012,05,25,04,54,5.30
2012,05,25,04,55,5.30
2012,05,25,04,56,5.30
2012,05,25,04,57,5.30
2012,05,25,04,58,5.30
2012,05,25,04,59,5.30
2012,05,25,05,00,5.30
2012,05,25,05,01,5.30
2012,05,25,05,02,5.30
2012,05,25,05,03,5.30
2012,05,25,05,04,5.30
2012,05,25,05,05,5.30
2012,05,25,05,06,5.30
2012,05,25,05,07,5.30
2012,05,25,05,08,5.30
2012,05,25,05,09,5.30
2012,05,25,05,10,5.30
2012,05,25,05,11,5.30
2012,05,25,05,12,5.30
2012,05,25,05,13,5.30
2012,05,25,05,14,5.30
2012,05,25,05,15,5.30
2012,05,25,05,16,5.30
2012,05,25,05,17,5.30
2012,05,25,05,18,5.30
2012,05,25,05,19,5.30
2012,05,25,05,20,5.30
2012,05,25,05,21,5.30
2012,05,25,05,22,5.30
2012,05,25,05,23,5.30
2012,05,25,05,24,5.30
2012,05,25,05,25,5.30
2012,05,25,05,26,5.30
2012,05,25,05,27,5.30
2012,05,25,05,28,5.30
2012,05,25,05,29,5.30
2012,05,25,05,30,5.30
2012,05,25,05,31,5.30
2012,05,25,05,32,5.30
2012,05,25,05,33,5.30
2012,05,25,05,34,5.30
2012,05,25,05,35,5.30
2012,05,25,05,36,5.30
2012,05,25,05,37,5.30
2012,05,25,05,38,5.30
2012,05,25,05,39,5.30
2012,05,25,05,40,5.30
2012,05,25,05,41,5.30
2012,05,25,05,42,5.30
2012,05,25,05,43,5.30
2012,05,25,05,44,5.30
2012,05,25,05,45,5.30
2012,05,25,05,46,5.30
2012,05,25,05,47,5.30
2012,05,25,05,48,5.30
2012,05,25,05,49,5.30
2012,05,25,05,50,5.30
2012,05,25,05,51,5.30
2012,05,25,05,52,5.30
2012,05,25,05,53,5.30
2012,05,25,05,54,5.30
2012,05,25,05,55,5.30
2012,05,25,05,56,5.30
2012,05,25,05,57,5.30
2012,05,25,05,58,5.30
2012,05,25,05,59,5.30
2012,05,25,06,00,5.30
2012,05,25,06,01,5.30
2012,05,25,06,02,5.30
2012,05,25,06,03,5.30
2012,05,25,06,04,5.40
2012,05,25,06,05,5.40
2012,05,25,06,06,5.40
2012,05,25,06,07,5.40
2012,05,25,06,08,5.40
2012,05,25,06,09,5.40
2012,05,25,06,10,5.40
2012,05,25,06,11,5.40
2012,05,25,06,12,5.40
2012,05,25,06,13,5.40
2012,05,25,06,14,5.40
2012,05,25,06,15,5.40
2012,05,25,06,16,5.50
2012,05,25,06,17,5.50
2012,05,25,06,18,5.50
2012,05,25,06,19,5.50
2012,05,25,06,20,5.50
2012,05,25,06,21,5.50
2012,05,25,06,22,5.60
2012,05,25,06,23,5.60
2012,05,25,06,24,5.60
2012,05,25,06,25,5.60
2012,05,25,06,26,5.60
2012,05,25,06,27,5.70
2012,05,25,06,28,5.70
2012,05,25,06,29,5.70
2012,05,25,06,30,5.70
2012,05,25,06,31,5.70
2012,05,25,06,32,5.70
2012,05,25,06,33,5.70
2012,05,25,06,34,5.70
2012,05,25,06,35,5.70
2012,05,25,06,36,5.70
2012,05,25,06,37,5.70
2012,05,25,06,38,5.70
2012,05,25,06,39,5.70
2012,05,25,06,40,5.80
2012,05,25,06,41,5.80
2012,05,25,06,42,5.80
2012,05,25,06,43,5.80
2012,05,25,06,44,5.80
2012,05,25,06,45,5.90
2012,05,25,06,46,5.90
2012,05,25,06,47,5.90
2012,05,25,06,48,5.90
2012,05,25,06,49,5.90
2012,05,25,06,50,5.90
2012,05,25,06,51,5.90
2012,05,25,06,52,5.90
2012,05,25,06,53,5.90
2012,05,25,06,54,5.90
2012,05,25,06,55,6.00
2012,05,25,06,56,6.00
2012,05,25,06,57,6.00
2012,05,25,06,58,6.10
2012,05,25,06,59,6.10
2012,05,25,07,00,6.10
2012,05,25,07,01,6.10
2012,05,25,07,02,6.20
2012,05,25,07,03,6.20
2012,05,25,07,04,6.20
2012,05,25,07,05,6.20
2012,05,25,07,06,6.30
2012,05,25,07,07,6.30
2012,05,25,07,08,6.30
2012,05,25,07,09,6.30
2012,05,25,07,10,6.40
2012,05,25,07,11,6.40
2012,05,25,07,12,6.40
2012,05,25,07,13,6.40
2012,05,25,07,14,6.50
2012,05,25,07,15,6.60
2012,05,25,07,16,6.60
2012,05,25,07,17,6.60
2012,05,25,07,18,6.70
2012,05,25,07,19,6.70
2012,05,25,07,20,6.70
2012,05,25,07,21,6.80
2012,05,25,07,22,6.80
2012,05,25,07,23,6.80
2012,05,25,07,24,6.80
2012,05,25,07,25,6.90
2012,05,25,07,26,7.00
2012,05,25,07,27,7.00
2012,05,25,07,28,7.00
2012,05,25,07,29,7.10
2012,05,25,07,30,7.10
2012,05,25,07,31,7.20
2012,05,25,07,32,7.20
2012,05,25,07,33,7.30
2012,05,25,07,34,7.30
2012,05,25,07,35,7.30
2012,05,25,07,36,7.40
2012,05,25,07,37,7.40
2012,05,25,07,38,7.40
2012,05,25,07,39,7.50
2012,05,25,07,40,7.50
2012,05,25,07,41,7.60
2012,05,25,07,42,7.60
2012,05,25,07,43,7.70
2012,05,25,07,44,7.70
2012,05,25,07,45,7.80
2012,05,25,07,46,7.80
2012,05,25,07,47,7.80
2012,05,25,07,48,7.90
2012,05,25,07,49,7.90
2012,05,25,07,50,8.00
2012,05,25,07,51,8.10
2012,05,25,07,52,8.10
2012,05,25,07,53,8.20
2012,05,25,07,54,8.20
2012,05,25,07,55,8.30
2012,05,25,07,56,8.40
2012,05,25,07,57,8.50
2012,05,25,07,58,8.50
2012,05,25,07,59,8.60
2012,05,25,08,00,8.70
2012,05,25,08,01,8.70
2012,05,25,08,02,8.80
2012,05,25,08,03,8.90
2012,05,25,08,04,8.90
2012,05,25,08,05,9.00
2012,05,25,08,06,9.10
2012,05,25,08,07,9.20
2012,05,25,08,08,9.30
2012,05,25,08,09,9.40
2012,05,25,08,10,9.50
2012,05,25,08,11,9.60
2012,05,25,08,12,9.70
2012,05,25,08,13,9.70
2012,05,25,08,14,9.80
2012,05,25,08,15,9.90
2012,05,25,08,16,9.90
2012,05,25,08,17,9.90
2012,05,25,08,18,10.00
2012,05,25,08,19,10.10
2012,05,25,08,20,10.10
2012,05,25,08,21,10.20
2012,05,25,08,22,10.20
2012,05,25,08,23,10.30
2012,05,25,08,24,10.40
2012,05,25,08,25,10.40
2012,05,25,08,26,10.50
2012,05,25,08,27,10.60
2012,05,25,08,28,10.60
2012,05,25,08,29,10.70
2012,05,25,08,30,10.80
2012,05,25,08,31,10.90
2012,05,25,08,32,10.90
2012,05,25,08,33,11.00
2012,05,25,08,34,11.10
2012,05,25,08,35,11.10
2012,05,25,08,36,11.20
2012,05,25,08,37,11.30
2012,05,25,08,38,11.30
2012,05,25,08,39,11.40
2012,05,25,08,40,11.50
2012,05,25,08,41,11.60
2012,05,25,08,42,11.60
2012,05,25,08,43,11.70
2012,05,25,08,44,11.70
2012,05,25,08,45,11.80
2012,05,25,08,46,11.90
2012,05,25,08,47,12.00
2012,05,25,08,48,12.10
2012,05,25,08,49,12.20
2012,05,25,08,50,12.30
2012,05,25,08,51,12.30
2012,05,25,08,52,12.40
2012,05,25,08,53,12.40
2012,05,25,08,54,12.50
2012,05,25,08,55,12.50
2012,05,25,08,56,12.60
2012,05,25,08,57,12.60
2012,05,25,08,58,12.70
2012,05,25,08,59,12.70
2012,05,25,09,00,12.70
2012,05,25,09,01,12.80
2012,05,25,09,02,12.80
2012,05,25,09,03,12.80
2012,05,25,09,04,12.90
2012,05,25,09,05,13.00
2012,05,25,09,06,13.00
2012,05,25,09,07,13.10
2012,05,25,09,08,13.10
2012,05,25,09,09,13.20
2012,05,25,09,10,13.20
2012,05,25,09,11,13.30
2012,05,25,09,12,13.30
2012,05,25,09,13,13.30
2012,05,25,09,14,13.40
2012,05,25,09,15,13.40
2012,05,25,09,16,13.50
2012,05,25,09,17,13.50
2012,05,25,09,18,13.60
2012,05,25,09,19,13.60
2012,05,25,09,20,13.70
2012,05,25,09,21,13.70
2012,05,25,09,22,13.70
2012,05,25,09,23,13.80
2012,05,25,09,24,13.90
2012,05,25,09,25,14.00
2012,05,25,09,26,14.10
2012,05,25,09,27,14.10
2012,05,25,09,28,14.20
2012,05,25,09,29,14.20
2012,05,25,09,30,14.20
2012,05,25,09,31,14.30
2012,05,25,09,32,14.40
2012,05,25,09,33,14.40
2012,05,25,09,34,14.50
2012,05,25,09,35,14.50
2012,05,25,09,36,14.60
2012,05,25,09,37,14.60
2012,05,25,09,38,14.70
2012,05,25,09,39,14.70
2012,05,25,09,40,14.70
2012,05,25,09,41,14.80
2012,05,25,09,42,14.80
2012,05,25,09,43,14.90
2012,05,25,09,44,14.90
2012,05,25,09,45,15.00
2012,05,25,09,46,15.10
2012,05,25,09,47,15.10
2012,05,25,09,48,15.10
2012,05,25,09,49,15.20
2012,05,25,09,50,15.20
2012,05,25,09,51,15.20
2012,05,25,09,52,15.30
2012,05,25,09,53,15.30
2012,05,25,09,54,15.30
2012,05,25,09,55,15.30
2012,05,25,09,56,15.30
2012,05,25,09,57,15.30
2012,05,25,09,58,15.30
2012,05,25,09,59,15.30
2012,05,25,10,00,15.40
2012,05,25,10,01,15.40
2012,05,25,10,02,15.50
2012,05,25,10,03,15.50
2012,05,25,10,04,15.60
2012,05,25,10,05,15.60
2012,05,25,10,06,15.70
2012,05,25,10,07,15.80
2012,05,25,10,08,15.80
2012,05,25,10,09,15.80
2012,05,25,10,10,15.90
2012,05,25,10,11,16.00
2012,05,25,10,12,16.10
2012,05,25,10,13,16.10
2012,05,25,10,14,16.10
2012,05,25,10,15,16.20
2012,05,25,10,16,16.20
2012,05,25,10,17,16.30
2012,05,25,10,18,16.30
2012,05,25,10,19,16.40
2012,05,25,10,20,16.40
2012,05,25,10,21,16.40
2012,05,25,10,22,16.40
2012,05,25,10,23,16.40
2012,05,25,10,24,16.40
2012,05,25,10,25,16.40
2012,05,25,10,26,16.40
2012,05,25,10,27,16.40
2012,05,25,10,28,16.40
2012,05,25,10,29,16.40
2012,05,25,10,30,16.40
2012,05,25,10,31,16.40
2012,05,25,10,32,16.40
2012,05,25,10,33,16.50
2012,05,25,10,34,16.60
2012,05,25,10,35,16.60
2012,05,25,10,36,16.60
2012,05,25,10,37,16.60
2012,05,25,10,38,16.70
2012,05,25,10,39,16.70
2012,05,25,10,40,16.70
2012,05,25,10,41,16.70
2012,05,25,10,42,16.70
2012,05,25,10,43,16.70
2012,05,25,10,44,16.70
2012,05,25,10,45,16.70
2012,05,25,10,46,16.80
2012,05,25,10,47,16.80
2012,05,25,10,48,16.80
2012,05,25,10,49,16.80
2012,05,25,10,50,16.80
2012,05,25,10,51,16.90
2012,05,25,10,52,16.90
2012,05,25,10,53,16.90
2012,05,25,10,54,16.90
2012,05,25,10,55,16.90
2012,05,25,10,56,16.90
2012,05,25,10,57,17.00
2012,05,25,10,58,17.00
2012,05,25,10,59,17.00
2012,05,25,11,00,17.00
2012,05,25,11,01,17.10
2012,05,25,11,02,17.10
2012,05,25,11,03,17.20
2012,05,25,11,04,17.20
2012,05,25,11,05,17.20
2012,05,25,11,06,17.20
2012,05,25,11,07,17.30
2012,05,25,11,08,17.30
2012,05,25,11,09,17.30
2012,05,25,11,10,17.30
2012,05,25,11,11,17.30
2012,05,25,11,12,17.30
2012,05,25,11,13,17.30
2012,05,25,11,14,17.30
2012,05,25,11,15,17.30
2012,05,25,11,16,17.40
2012,05,25,11,17,17.40
2012,05,25,11,18,17.40
2012,05,25,11,19,17.50
2012,05,25,11,20,17.50
2012,05,25,11,21,17.50
2012,05,25,11,22,17.50
2012,05,25,11,23,17.50
2012,05,25,11,24,17.50
2012,05,25,11,25,17.50
2012,05,25,11,26,17.60
2012,05,25,11,27,17.60
2012,05,25,11,28,17.60
2012,05,25,11,29,17.60
2012,05,25,11,30,17.70
2012,05,25,11,31,17.70
2012,05,25,11,32,17.60
2012,05,25,11,33,17.60
2012,05,25,11,34,17.60
2012,05,25,11,35,17.60
2012,05,25,11,36,17.70
2012,05,25,11,37,17.70
2012,05,25,11,38,17.70
2012,05,25,11,39,17.70
2012,05,25,11,40,17.70
2012,05,25,11,41,17.70
2012,05,25,11,42,17.70
2012,05,25,11,43,17.70
2012,05,25,11,44,17.70
2012,05,25,11,45,17.70
2012,05,25,11,46,17.70
2012,05,25,11,47,17.70
2012,05,25,11,48,17.70
2012,05,25,11,49,17.70
2012,05,25,11,50,17.70
2012,05,25,11,51,17.80
2012,05,25,11,52,17.80
2012,05,25,11,53,17.80
2012,05,25,11,54,17.80
2012,05,25,11,55,17.90
2012,05,25,11,56,17.90
2012,05,25,11,57,17.90
2012,05,25,11,58,17.90
2012,05,25,11,59,17.90
2012,05,25,12,00,17.90
2012,05,25,12,01,17.90
2012,05,25,12,02,17.90
2012,05,25,12,03,17.90
2012,05,25,12,04,17.90
2012,05,25,12,05,17.90
2012,05,25,12,06,18.00
2012,05,25,12,07,18.10
2012,05,25,12,08,18.10
2012,05,25,12,09,18.10
2012,05,25,12,10,18.10
2012,05,25,12,11,18.20
2012,05,25,12,12,18.20
2012,05,25,12,13,18.30
2012,05,25,12,14,18.40
2012,05,25,12,15,18.40
2012,05,25,12,16,18.50
2012,05,25,12,17,18.50
2012,05,25,12,18,18.50
2012,05,25,12,19,18.50
2012,05,25,12,20,18.50
2012,05,25,12,21,18.60
2012,05,25,12,22,18.60
2012,05,25,12,23,18.60
2012,05,25,12,24,18.60
2012,05,25,12,25,18.60
2012,05,25,12,26,18.60
2012,05,25,12,27,18.60
2012,05,25,12,28,18.70
2012,05,25,12,29,18.70
2012,05,25,12,30,18.70
2012,05,25,12,31,18.70
2012,05,25,12,32,18.80
2012,05,25,12,33,18.80
2012,05,25,12,34,18.90
2012,05,25,12,35,18.90
2012,05,25,12,36,18.90
2012,05,25,12,37,18.90
2012,05,25,12,38,18.90
2012,05,25,12,39,18.90
2012,05,25,12,40,18.90
2012,05,25,12,41,18.90
2012,05,25,12,42,19.00
2012,05,25,12,43,19.10
2012,05,25,12,44,19.10
2012,05,25,12,45,19.10
2012,05,25,12,46,19.10
2012,05,25,12,47,19.20
2012,05,25,12,48,19.20
2012,05,25,12,49,19.30
2012,05,25,12,50,19.40
2012,05,25,12,51,19.40
2012,05,25,12,52,19.50
2012,05,25,12,53,19.50
2012,05,25,12,54,19.60
2012,05,25,12,55,19.60
2012,05,25,12,56,19.70
2012,05,25,12,57,19.80
2012,05,25,12,58,19.80
2012,05,25,12,59,19.90
2012,05,25,13,00,19.90
2012,05,25,13,01,19.90
2012,05,25,13,02,19.90
2012,05,25,13,03,20.00
2012,05,25,13,04,20.10
2012,05,25,13,05,20.10
2012,05,25,13,06,20.20
2012,05,25,13,07,20.20
2012,05,25,13,08,20.30
2012,05,25,13,09,20.40
2012,05,25,13,10,20.50
2012,05,25,13,11,20.60
2012,05,25,13,12,20.60
2012,05,25,13,13,20.60
2012,05,25,13,14,20.60
2012,05,25,13,15,20.60
2012,05,25,13,16,20.60
2012,05,25,13,17,20.70
2012,05,25,13,18,20.70
2012,05,25,13,19,20.80
2012,05,25,13,20,20.80
2012,05,25,13,21,20.80
2012,05,25,13,22,20.90
2012,05,25,13,23,20.90
2012,05,25,13,24,20.90
2012,05,25,13,25,21.00
2012,05,25,13,26,21.10
2012,05,25,13,27,21.20
2012,05,25,13,28,21.20
2012,05,25,13,29,21.30
2012,05,25,13,30,21.30
2012,05,25,13,31,21.40
2012,05,25,13,32,21.50
2012,05,25,13,33,21.60
2012,05,25,13,34,21.50
2012,05,25,13,35,21.30
2012,05,25,13,36,21.30
2012,05,25,13,37,21.30
2012,05,25,13,38,21.30
2012,05,25,13,39,21.30
2012,05,25,13,40,21.30
2012,05,25,13,41,21.40
2012,05,25,13,42,21.40
2012,05,25,13,43,21.40
2012,05,25,13,44,21.40
2012,05,25,13,45,21.40
2012,05,25,13,46,21.50
2012,05,25,13,47,21.60
2012,05,25,13,48,21.60
2012,05,25,13,49,21.60
2012,05,25,13,50,21.60
2012,05,25,13,51,21.70
2012,05,25,13,52,21.70
2012,05,25,13,53,21.80
2012,05,25,13,54,21.90
2012,05,25,13,55,21.90
2012,05,25,13,56,22.00
2012,05,25,13,57,22.00
2012,05,25,13,58,21.90
2012,05,25,13,59,21.80
2012,05,25,14,00,21.70
2012,05,25,14,01,21.70
2012,05,25,14,02,21.60
2012,05,25,14,03,21.60
2012,05,25,14,04,21.60
2012,05,25,14,05,21.60
2012,05,25,14,06,21.60
2012,05,25,14,07,21.60
2012,05,25,14,08,21.70
2012,05,25,14,09,21.70
2012,05,25,14,10,21.70
2012,05,25,14,11,21.60
2012,05,25,14,12,21.60
2012,05,25,14,13,21.60
2012,05,25,14,14,21.50
2012,05,25,14,15,21.40
2012,05,25,14,16,21.40
2012,05,25,14,17,21.40
2012,05,25,14,18,21.50
2012,05,25,14,19,21.40
2012,05,25,14,20,21.40
2012,05,25,14,21,21.60
2012,05,25,14,22,21.60
2012,05,25,14,23,21.60
2012,05,25,14,24,21.60
2012,05,25,14,25,21.50
2012,05,25,14,26,21.40
2012,05,25,14,27,21.40
2012,05,25,14,28,21.50
2012,05,25,14,29,21.60
2012,05,25,14,30,21.60
2012,05,25,14,31,21.60
2012,05,25,14,32,21.60
2012,05,25,14,33,21.70
2012,05,25,14,34,21.80
2012,05,25,14,35,21.90
2012,05,25,14,36,22.00
2012,05,25,14,37,22.00
2012,05,25,14,38,22.10
2012,05,25,14,39,22.20
2012,05,25,14,40,22.20
2012,05,25,14,41,22.20
2012,05,25,14,42,22.20
2012,05,25,14,43,22.10
2012,05,25,14,44,22.10
2012,05,25,14,45,22.10
2012,05,25,14,46,22.20
2012,05,25,14,47,22.20
2012,05,25,14,48,22.20
2012,05,25,14,49,22.20
2012,05,25,14,50,22.20
2012,05,25,14,51,22.10
2012,05,25,14,52,22.10
2012,05,25,14,53,22.20
2012,05,25,14,54,22.20
2012,05,25,14,55,22.20
2012,05,25,14,56,22.30
2012,05,25,14,57,22.40
2012,05,25,14,58,22.40
2012,05,25,14,59,22.40
2012,05,25,15,00,22.40
2012,05,25,15,01,22.30
2012,05,25,15,02,22.20
2012,05,25,15,03,22.20
2012,05,25,15,04,22.10
2012,05,25,15,05,22.10
2012,05,25,15,06,22.10
2012,05,25,15,07,22.00
2012,05,25,15,08,22.00
2012,05,25,15,09,21.90
2012,05,25,15,10,21.90
2012,05,25,15,11,21.90
2012,05,25,15,12,21.80
2012,05,25,15,13,21.80
2012,05,25,15,14,21.90
2012,05,25,15,15,22.00
2012,05,25,15,16,22.00
2012,05,25,15,17,22.00
2012,05,25,15,18,22.00
2012,05,25,15,19,22.00
2012,05,25,15,20,21.90
2012,05,25,15,21,21.90
2012,05,25,15,22,22.00
2012,05,25,15,23,22.00
2012,05,25,15,24,22.10
2012,05,25,15,25,22.20
2012,05,25,15,26,22.20
2012,05,25,15,27,22.30
2012,05,25,15,28,22.30
2012,05,25,15,29,22.30
2012,05,25,15,30,22.30
2012,05,25,15,31,22.40
2012,05,25,15,32,22.50
2012,05,25,15,33,22.50
2012,05,25,15,34,22.50
2012,05,25,15,35,22.60
2012,05,25,15,36,22.60
2012,05,25,15,37,22.60
2012,05,25,15,38,22.60
2012,05,25,15,39,22.60
2012,05,25,15,40,22.60
2012,05,25,15,41,22.60
2012,05,25,15,42,22.60
2012,05,25,15,43,22.50
2012,05,25,15,44,22.30
2012,05,25,15,45,22.20
2012,05,25,15,46,22.20
2012,05,25,15,47,22.10
2012,05,25,15,48,22.00
2012,05,25,15,49,22.00
2012,05,25,15,50,22.00
2012,05,25,15,51,21.90
2012,05,25,15,52,21.80
2012,05,25,15,53,21.70
2012,05,25,15,54,21.70
2012,05,25,15,55,21.60
2012,05,25,15,56,21.60
2012,05,25,15,57,21.60
2012,05,25,15,58,21.60
2012,05,25,15,59,21.60
2012,05,25,16,00,21.70
2012,05,25,16,01,21.70
2012,05,25,16,02,21.70
2012,05,25,16,03,21.80
2012,05,25,16,04,21.80
2012,05,25,16,05,21.80
2012,05,25,16,06,21.80
2012,05,25,16,07,21.80
2012,05,25,16,08,21.80
2012,05,25,16,09,21.80
2012,05,25,16,10,21.80
2012,05,25,16,11,21.80
2012,05,25,16,12,21.80
2012,05,25,16,13,21.80
2012,05,25,16,14,21.80
2012,05,25,16,15,21.80
2012,05,25,16,16,21.80
2012,05,25,16,17,21.80
2012,05,25,16,18,21.80
2012,05,25,16,19,21.90
2012,05,25,16,20,21.90
2012,05,25,16,21,21.80
2012,05,25,16,22,21.80
2012,05,25,16,23,21.80
2012,05,25,16,24,21.80
2012,05,25,16,25,21.70
2012,05,25,16,26,21.70
2012,05,25,16,27,21.70
2012,05,25,16,28,21.70
2012,05,25,16,29,21.60
2012,05,25,16,30,21.60
2012,05,25,16,31,21.60
2012,05,25,16,32,21.60
2012,05,25,16,33,21.60
2012,05,25,16,34,21.60
2012,05,25,16,35,21.60
2012,05,25,16,36,21.60
2012,05,25,16,37,21.60
2012,05,25,16,38,21.60
2012,05,25,16,39,21.60
2012,05,25,16,40,21.60
2012,05,25,16,41,21.60
2012,05,25,16,42,21.60
2012,05,25,16,43,21.60
2012,05,25,16,44,21.50
2012,05,25,16,45,21.40
2012,05,25,16,46,21.40
2012,05,25,16,47,21.40
2012,05,25,16,48,21.40
2012,05,25,16,49,21.40
2012,05,25,16,50,21.40
2012,05,25,16,51,21.40
2012,05,25,16,52,21.40
2012,05,25,16,53,21.40
2012,05,25,16,54,21.40
2012,05,25,16,55,21.40
2012,05,25,16,56,21.60
2012,05,25,16,57,21.60
2012,05,25,16,58,21.60
2012,05,25,16,59,21.60
2012,05,25,17,00,21.60
2012,05,25,17,01,21.60
2012,05,25,17,02,21.60
2012,05,25,17,03,21.60
2012,05,25,17,04,21.60
2012,05,25,17,05,21.60
2012,05,25,17,06,21.60
2012,05,25,17,07,21.60
2012,05,25,17,08,21.60
2012,05,25,17,09,21.60
2012,05,25,17,10,21.60
2012,05,25,17,11,21.60
2012,05,25,17,12,21.60
2012,05,25,17,13,21.60
2012,05,25,17,14,21.60
2012,05,25,17,15,21.60
2012,05,25,17,16,21.60
2012,05,25,17,17,21.60
2012,05,25,17,18,21.70
2012,05,25,17,19,21.70
2012,05,25,17,20,21.70
2012,05,25,17,21,21.70
2012,05,25,17,22,21.70
2012,05,25,17,23,21.70
2012,05,25,17,24,21.70
2012,05,25,17,25,21.70
2012,05,25,17,26,21.80
2012,05,25,17,27,21.80
2012,05,25,17,28,21.80
2012,05,25,17,29,21.80
2012,05,25,17,30,21.80
2012,05,25,17,31,21.80
2012,05,25,17,32,21.90
2012,05,25,17,33,21.90
2012,05,25,17,34,21.90
2012,05,25,17,35,21.90
2012,05,25,17,36,21.90
2012,05,25,17,37,21.90
2012,05,25,17,38,21.80
2012,05,25,17,39,21.80
2012,05,25,17,40,21.80
2012,05,25,17,41,21.80